Find Kosmos-2084

NORAD ID: 20663 Int'l Des: 1990-055 Owner: PVO Country: SU operational
LEOCIRCULAR

实时位置

正在加载3D地球...

关于 Kosmos-2084

正在加载描述...

即将过境

Passes for default location (London). Set your location on the main map for personalized predictions.

高度历史

Loading altitude history...

两行轨道根数

1 20663U 90055A 26131.67559745 .00001067 00000-0 86753-4 0 9994
2 20663 62.7875 120.6936 0007602 223.4002 136.6501 15.05962698945808
Epoch: May 11, 2026 • Age: 12 hours

当前状态

高度 557.4 km
速度 7.59 km/s
星下点 -39.91°S, 28.79°E
发射日期 Jun 21, 1990
运行时间 35.8 years
类型 other

技术详情

分类 Payload
质量 1250.00 kg
干质量 1150.00 kg
总质量 1250.00 kg
长度 4.00 m
直径 2.00 m
跨度 5.00 m
形状 Cyl + 2 Pan
制造商 NPOL/KOMET
平台类型 Oko
阶段状态 In Orbit
所有者/国家 PVO/SU

Most Searched